Beaufort, NC

7:11 AM EDT on September 18, 2019 (GMT -0400)
Smith

Weather History for KMRH - May, 2019

Change the Weather History Date:

Monday, May 20, 2019

  Actual Average Record
Temperature  
Mean Temperature 77 °F -  
Max Temperature 82 °F 79 °F 89 °F (1971)
Min Temperature 73 °F 63 °F 40 °F (1968)
Cooling Degree Days 12    
Growing Degree Days 27 (Base 50)    
Moisture  
Dew Point 69 °F    
Average Humidity 77    
Maximum Humidity 87    
Minimum Humidity 65    
Precipitation  
Precipitation 0.00 in - - ()
Sea Level Pressure  
Sea Level Pressure 30.02 in    
Wind  
Wind Speed 12 mph (SW)    
Max Wind Speed 18 mph    
Max Gust Speed 22 mph    
Visibility 10 miles    
Events      
Averages and records for this station are not official NWS values.
T = Trace of Precipitation, MM = Missing Value Source: NWS Daily Summary

Daily Weather History Graph

Daily Weather History Graph

Search for Another Location

Airport or City:

Astronomy

May. 20, 2019 Rise Set
Actual Time 6:00 AM EDT 8:06 PM EDT
Civil Twilight 5:32 AM EDT 8:34 PM EDT
Nautical Twilight 4:57 AM EDT 9:09 PM EDT
Astronomical Twilight 4:20 AM EDT 9:46 PM EDT
Moon 10:03 PM EDT (5/20) 7:27 AM EDT (5/20)
Length of Visible Light 15h 02m
Length of Day
14h 06m
Waning Gibbous, 96% of the Moon is Illuminated
May 20
Waning Gibbous
May 26
Last Quarter
Jun 3
New
Jun 10
First Quarter
Jun 17
Full

Hourly Weather History & Observations

Time (EDT) Temp. Heat Index Dew Point Humidity Pressure Visibility Wind Dir Wind Speed Gust Speed Precip Events Conditions
12:58 AM 73.9 °F - 69.1 °F 85% 30.08 in 10.0 mi WSW 10.4 mph - N/A   Clear
1:58 AM 73.9 °F - 69.1 °F 85% 30.07 in 10.0 mi SW 6.9 mph - N/A   Clear
2:58 AM 73.9 °F - 68.0 °F 82% 30.05 in 10.0 mi SW 11.5 mph - N/A   Clear
3:58 AM 73.0 °F - 69.1 °F 87% 30.05 in 10.0 mi SW 8.1 mph - N/A   Clear
4:58 AM 73.0 °F - 69.1 °F 87% 30.05 in 10.0 mi SW 8.1 mph - N/A   Clear
5:58 AM 73.0 °F - 69.1 °F 87% 30.06 in 10.0 mi SW 10.4 mph - N/A   Clear
6:58 AM 73.9 °F - 70.0 °F 87% 30.06 in 10.0 mi SW 9.2 mph - N/A   Clear
7:58 AM 75.9 °F - 69.1 °F 79% 30.06 in 10.0 mi SW 10.4 mph - N/A   Clear
8:58 AM 78.1 °F - 68.0 °F 71% 30.07 in 10.0 mi SW 11.5 mph 20.7 mph N/A   Clear
9:58 AM 79.0 °F - 68.0 °F 69% 30.06 in 10.0 mi SW 13.8 mph - N/A   Clear
10:58 AM 80.1 °F 82.9 °F 69.1 °F 69% 30.06 in 10.0 mi SW 12.7 mph - N/A   Clear
11:58 AM 81.0 °F 83.8 °F 68.0 °F 65% 30.06 in 10.0 mi SW 17.3 mph - N/A   Clear
12:58 PM 81.0 °F 84.1 °F 69.1 °F 67% 30.04 in 10.0 mi SW 17.3 mph - N/A   Clear
1:58 PM 81.0 °F 83.8 °F 68.0 °F 65% 30.01 in 10.0 mi SW 15.0 mph - N/A   Clear
2:58 PM 81.0 °F 84.1 °F 69.1 °F 67% 30.00 in 10.0 mi SSW 18.4 mph - N/A   Clear
3:58 PM 81.0 °F 84.1 °F 69.1 °F 67% 29.98 in 10.0 mi SSW 16.1 mph - N/A   Clear
4:58 PM 80.1 °F 82.9 °F 69.1 °F 69% 29.97 in 10.0 mi SSW 17.3 mph 21.9 mph N/A   Clear
5:58 PM 79.0 °F - 69.1 °F 72% 29.97 in 10.0 mi SSW 13.8 mph - N/A   Clear
6:58 PM 77.0 °F - 69.1 °F 76% 29.96 in 10.0 mi SSW 15.0 mph - N/A   Clear
7:58 PM 75.9 °F - 69.1 °F 79% 29.96 in 10.0 mi SSW 13.8 mph - N/A   Clear
8:58 PM 75.0 °F - 68.0 °F 79% 29.97 in 10.0 mi SW 10.4 mph - N/A   Clear
9:58 PM 75.0 °F - 69.1 °F 82% 29.97 in 10.0 mi SW 11.5 mph - N/A   Clear
10:58 PM 75.0 °F - 70.0 °F 84% 29.99 in 10.0 mi SW 13.8 mph - N/A   Partly Cloudy
11:58 PM 75.0 °F - 69.1 °F 82% 29.97 in 10.0 mi SW 15.0 mph - N/A   Clear